Tracking 31027 objects as of 19-Jul-2025
HD Live streaming from Space Station
objects crossing your sky now

NSTAR A

Track NSTAR A now!
NSTAR A is classified as:


NORAD ID: 23651
Int'l Code: 1995-044A
Perigee: 36,035.6 km
Apogee: 36,197.7 km
Inclination: 12.8 °
Period: 1,452.6 minutes
Semi major axis: 42487 km
RCS: 15.8489 m2 (large)
Launch date: August 29, 1995
Source: Japan (JPN)
Launch site: FRENCH GUIANA (FRGUI)

Voice and TV broadcast to Japan and neighboring region.
Your satellite tracking list
FLOCK 3P 17
Track 1 satellite(s)




NASA's NSSDC Master Catalog

Two Line Element Set (TLE):
1 23651U 95044A   25199.60126590 -.00000303  00000-0  00000-0 0  9991
2 23651  12.8082  23.7264 0019080  13.1129 252.6138  0.99130751108606
Source of the keplerian elements: AFSPC